User: anonymous   Login
Location: La Fredeussais
(48.1780°N, 1.3980°W)
Time: 02:08:14
(UTC+00:00)
Language:

ISS - Orbit

View from above orbital plane
View from above orbital plane
View from above satellite
View from above satellite

Ground track
Ground track

The orbit data is extracted from the following two-line orbital elements,

1 25544U 98067A   21262.88147983  .00000625  00000-0  19859-4 0  9990
2 25544  51.6431 234.5078 0003373  33.5390   8.4261 15.48407896303278
Epoch (UTC): 19 September 2021 21:09:19
Eccentricity: 0.0003373
inclination: 51.6431°
perigee height: 419 km
apogee height: 423 km
right ascension of ascending node: 234.5078°
argument of perigee: 33.5390°
revolutions per day: 15.48407896
mean anomaly at epoch: 8.4261°
orbit number at epoch: 30327

The dashed part of the orbit path shows where the satellite is in the earth's shadow,  

DLR